Location: Devore Heights
(34.2372°N, 117.4156°W)
Time: 19:53:15
(UTC+00:00)

deb Explorer IX - Pass Details

Date: 20 September 2024
Orbit: 502 x 816 km, 38.7° (Epoch: 15 October)

Event Time Altitude Azimuth Distance (km) Brightness Sun altitude
Rises 01:42:27 0° 250° (WSW) 3,246 ? 0.7°
Reaches altitude 10° 01:44:51 10° 251° (WSW) 2,361 ? 0.2°
Maximum altitude 01:50:32 86° 340° (NNW) 837 ? -1.0°
Drops below altitude 10° 01:56:29 10° 70° (ENE) 2,467 ? -2.2°
Enters shadow 01:58:51 - 71° (ENE) 3,331 ? -2.7°
Sets 01:59:02 0° 71° (ENE) 3,401 - -2.8°
